Tracking 20083 objects as of 12-Dec-2019
HD Live streaming from Space Station
objects crossing your sky now

COSMOS 1375 DEB

Track COSMOS 1375 DEB now!
10-day predictions


NORAD ID: 16385
Int'l Code: 1982-055Z
Perigee: 941.5 km
Apogee: 974.5 km
Inclination: 65.8 °
Period: 104.1 minutes
Semi major axis: 7328 km
RCS: 0.0186 m2 (small)
Launch date: June 6, 1982
Source: Commonwealth of Independent States (former USSR) (CIS)
Launch site: PLESETSK MISSILE AND SPACE COMPLEX (PKMTR)

Note: This is SATELLITE DEBRIS
aabbcc
Your satellite tracking list
Your tracking list is empty




NASA's NSSDC Master Catalog

Two Line Element Set (TLE):
1 16385U 82055Z   19346.17364279  .00000293  00000-0  33838-3 0  9997
2 16385  65.8307  23.3481 0022466   8.2866  56.2332 13.83684584717102
Source of the keplerian elements: AFSPC